Вернуться в каталог

ANIK F1-R

АктивенСвязьGEO
NORAD 28868·PAYLOAD·🇨🇦 Canada

Запущен Sep 8, 2005 с Baikonur Cosmodrome

Loading…

TLE

СвежийSource: CelesTrak SupGP

Эпоха: Sep 14, 2026, 04:59 UTC

1 28868C 05036A   26257.20833333  .00000016  00000+0  00000+0 0  2575
2 28868   4.5350  75.4235 0002841  56.5846 188.8847  1.00272963    11

Отслеживайте ANIK F1-R в реальном времени с AllMySat

Download on the App Store